Weather History for Prague, Czech Republic

Change the Weather History Date:

Saturday, September 28, 2013

  Actual Average Record
Temperature  
Mean Temperature 45 °F -  
Max Temperature 56 °F 57 °F 69 °F (2000)
Min Temperature 34 °F 40 °F 34 °F (2013)
Degree Days  
Heating Degree Days 20    
Moisture  
Dew Point 37 °F    
Average Humidity 73    
Maximum Humidity 93    
Minimum Humidity 41    
Precipitation  
Precipitation 0.00 in 0.04 in - ()
Sea Level Pressure  
Sea Level Pressure 30.02 in    
Wind  
Wind Speed 4 mph ()    
Max Wind Speed 9 mph    
Max Gust Speed -    
Visibility 7.8 miles    
Events      
Averages and records for this station are not official NWS values.
T = Trace of Precipitation, MM = Missing Value Source: Averaged Metar Reports

Daily Weather History Graph

Daily Weather History Graph

Search for Another Location

Airport:

Trip Planner

Search our weather history database for the weather conditions in past years. The results will help you decide how hot, cold, wet, or windy it might be!

Date:

Astronomy

Sep. 28, 2013 Rise Set
Actual Time 6:58 AM CEST 6:47 PM CEST
Civil Twilight 6:26 AM CEST 7:20 PM CEST
Nautical Twilight 5:48 AM CEST 7:57 PM CEST
Astronomical Twilight 5:09 AM CEST 8:36 PM CEST
Moon No Moon Rise 3:24 PM CEST (9/28)
Length of Visible Light 12h 53m
Length of Day
11h 49m
Last Quarter, 38% of the Moon is Illuminated
Sep 28
Last Quarter
Oct 5
New
Oct 12
First Quarter
Oct 19
Full
Oct 27
Last Quarter

Hourly Weather History & Observations

Time (CEST) Temp. Windchill Dew Point Humidity Pressure Visibility Wind Dir Wind Speed Gust Speed Precip Events Conditions
12:00 AM 37.4 °F 34.9 °F 35.6 °F 93% 30.04 in - West 3.5 mph - N/A   Clear
12:30 AM 37.4 °F 33.8 °F 35.6 °F 93% 30.04 in - WSW 4.6 mph - N/A   Clear
1:00 AM 39.2 °F 37.0 °F 35.6 °F 87% 30.04 in - West 3.5 mph - N/A   Clear
1:30 AM 39.2 °F 37.0 °F 35.6 °F 87% 30.04 in - West 3.5 mph - N/A   Clear
2:00 AM 37 °F - 35 °F 90% 30.10 in 19 mi SW 4.5 mph - -  
2:00 AM 37.4 °F 34.9 °F 35.6 °F 93% 30.04 in - West 3.5 mph - N/A   Clear
2:30 AM 37.4 °F - 35.6 °F 93% 30.04 in - West 2.3 mph - N/A   Clear
3:00 AM 37.4 °F - 35.6 °F 93% 30.04 in - West 2.3 mph - N/A   Clear
3:30 AM 35.6 °F 31.7 °F 32.0 °F 87% 30.04 in - West 4.6 mph - N/A   Clear
4:00 AM 35.6 °F 31.7 °F 33.8 °F 93% 30.04 in - West 4.6 mph - N/A   Clear
4:30 AM 37.4 °F - 35.6 °F 93% 30.04 in - WSW 2.3 mph - N/A   Clear
5:00 AM 37.4 °F - 33.8 °F 87% 30.04 in - WSW 2.3 mph - N/A   Clear
5:30 AM 35.6 °F - 33.8 °F 93% 30.04 in - West 2.3 mph - N/A   Clear
6:00 AM 35.6 °F - 33.8 °F 93% 30.04 in - West 2.3 mph - N/A   Clear
6:30 AM 37.4 °F - 35.6 °F 93% 30.01 in - WSW 1.2 mph - N/A   Clear
7:00 AM 35.6 °F - 33.8 °F 93% 30.04 in - WSW 1.2 mph - N/A   Clear
7:30 AM 37.4 °F - 35.6 °F 93% 30.04 in - Variable 1.2 mph - N/A   Clear
8:00 AM 37 °F - 34 °F 84% 30.09 in 16 mi WSW 2.2 mph - -   Clear
8:00 AM 37.4 °F - 33.8 °F 87% 30.04 in - NE 2.3 mph - N/A   Clear
8:30 AM 41.0 °F - 37.4 °F 87% 30.04 in - Calm Calm - N/A   Clear
9:00 AM 44.6 °F - 39.2 °F 81% 30.04 in - Variable 2.3 mph - N/A   Clear
9:30 AM 46.4 °F - 39.2 °F 76% 30.04 in - Variable 1.2 mph - N/A   Clear
10:00 AM 48.2 °F - 41.0 °F 76% 30.04 in - Variable 2.3 mph - N/A   Clear
10:30 AM 50.0 °F - 39.2 °F 66% 30.04 in - Variable 2.3 mph - N/A   Clear
11:00 AM 51.8 °F - 39.2 °F 62% 30.04 in - ESE 4.6 mph - N/A   Clear
11:30 AM 51.8 °F - 39.2 °F 62% 30.04 in - East 5.8 mph - N/A   Clear
12:00 PM 53.6 °F - 39.2 °F 58% 30.04 in 6.2 mi SE 5.8 mph - N/A   Partly Cloudy
12:30 PM 53.6 °F - 37.4 °F 54% 30.04 in 6.2 mi SE 4.6 mph - N/A   Partly Cloudy
1:00 PM 53.6 °F - 37.4 °F 54% 30.01 in 6.2 mi SE 4.6 mph - N/A   Partly Cloudy
1:30 PM 55.4 °F - 35.6 °F 47% 30.01 in 6.2 mi ESE 4.6 mph - N/A   Partly Cloudy
2:00 PM 55 °F - 38 °F 41% 30.02 in 25 mi ENE 6.7 mph - -   Scattered Clouds
2:00 PM 55.4 °F - 37.4 °F 51% 30.01 in 6.2 mi SSE 3.5 mph - N/A   Partly Cloudy
2:30 PM 57.2 °F - 37.4 °F 48% 30.01 in 6.2 mi Variable 2.3 mph - N/A   Partly Cloudy
3:00 PM 55.4 °F - 37.4 °F 51% 29.98 in 6.2 mi East 5.8 mph - N/A   Partly Cloudy
3:30 PM 55.4 °F - 39.2 °F 54% 29.98 in 6.2 mi ENE 5.8 mph - N/A   Partly Cloudy
4:00 PM 55.4 °F - 39.2 °F 54% 29.98 in 6.2 mi ENE 8.1 mph - N/A   Partly Cloudy
4:30 PM 55.4 °F - 39.2 °F 54% 29.98 in 6.2 mi ENE 6.9 mph - N/A   Partly Cloudy
5:00 PM 55.4 °F - 39.2 °F 54% 29.98 in 6.2 mi NE 6.9 mph - N/A   Partly Cloudy
5:30 PM 53.6 °F - 37.4 °F 54% 29.98 in 6.2 mi ENE 8.1 mph - N/A   Partly Cloudy
6:00 PM 51.8 °F - 39.2 °F 62% 29.98 in - NE 8.1 mph - N/A   Clear
6:30 PM 51.8 °F - 37.4 °F 58% 29.98 in - ENE 8.1 mph - N/A   Clear
7:00 PM 48.2 °F - 37.4 °F 66% 29.98 in - ENE 6.9 mph - N/A   Clear
7:30 PM 48.2 °F - 35.6 °F 62% 29.98 in - ENE 6.9 mph - N/A   Clear
8:00 PM 47 °F - 36 °F 56% 30.01 in 25 mi East 6.7 mph - -   Clear
8:00 PM 46.4 °F 42.4 °F 35.6 °F 66% 29.98 in - East 8.1 mph - N/A   Clear
8:30 PM 46.4 °F 42.9 °F 35.6 °F 66% 29.98 in - East 6.9 mph - N/A   Clear
9:00 PM 46.4 °F 43.5 °F 35.6 °F 66% 29.98 in - East 5.8 mph - N/A   Clear
9:30 PM 46.4 °F 43.5 °F 35.6 °F 66% 29.98 in - ENE 5.8 mph - N/A   Clear
10:00 PM 46.4 °F 43.5 °F 35.6 °F 66% 30.01 in - NE 5.8 mph - N/A   Clear
10:30 PM 44.6 °F 41.4 °F 37.4 °F 76% 30.01 in - NE 5.8 mph - N/A   Clear
11:02 PM 42.8 °F 38.6 °F 35.6 °F 76% 30.01 in - ENE 6.9 mph - N/A   Clear
11:30 PM 41.0 °F 35.2 °F 37.4 °F 87% 30.01 in - East 9.2 mph - N/A   Clear